Location: Culleoka
(33.1312°N, 96.4919°W)
Time: 07:53:56
(UTC+00:00)

Meteor 2-6 Rocket - Pass Details

Date: 08 December 2021
Orbit: 805 x 915 km, 81.3° (Epoch: 18 January)

Event Time Altitude Azimuth Distance (km) Brightness Sun altitude
Rises 23:41:00 0° 174° (S) 3,484 7.7 -5.0°
Reaches altitude 10° 23:43:30 10° 170° (S) 2,534 6.9 -5.5°
Maximum altitude 23:49:06 55° 94° (E) 1,036 4.4 -6.6°
Drops below altitude 10° 23:54:34 10° 18° (NNE) 2,475 6.3 -7.6°
Sets 23:57:00 0° 14° (NNE) 3,397 7.0 -8.1°
